Time,TemperatureF,DewpointF,PressureIn,WindDirection,WindDirectionDegrees,WindSpeedMPH,WindSpeedGustMPH,Humidity,HourlyPrecipIn,Conditions,Clouds,dailyrainin,SoftwareType,DateUTC
2013-01-22 00:09:00,-19.6,-24.0,30.36,SE,137,1.0,6.0,79,0.00,,,0.00,weatherlink.com 1.10,2013-01-22 06:09:00,
2013-01-22 00:24:00,-19.8,-24.0,30.36,SE,135,1.0,3.0,79,0.00,,,0.00,weatherlink.com 1.10,2013-01-22 06:24:00,
2013-01-22 00:39:00,-20.0,-25.0,30.37,SSE,165,0.0,4.0,79,0.00,,,0.00,weatherlink.com 1.10,2013-01-22 06:39:00,
2013-01-22 00:54:00,-20.0,-25.0,30.37,SE,127,0.0,4.0,79,0.00,,,0.00,weatherlink.com 1.10,2013-01-22 06:54:00,
2013-01-22 01:09:00,-20.2,-25.0,30.38,ESE,120,1.0,4.0,79,0.00,,,0.00,weatherlink.com 1.10,2013-01-22 07:09:00,
2013-01-22 01:24:00,-20.5,-25.0,30.38,SE,125,0.0,3.0,79,0.00,,,0.00,weatherlink.com 1.10,2013-01-22 07:24:00,
2013-01-22 01:39:00,-20.8,-25.0,30.39,SE,136,0.0,3.0,79,0.00,,,0.00,weatherlink.com 1.10,2013-01-22 07:39:00,
2013-01-22 01:54:00,-20.8,-25.0,30.39,SE,132,0.0,2.0,79,0.00,,,0.00,weatherlink.com 1.10,2013-01-22 07:54:00,
2013-01-22 02:10:00,-21.0,-26.0,30.39,ESE,122,0.0,1.0,79,0.00,,,0.00,weatherlink.com 1.10,2013-01-22 08:10:00,
2013-01-22 02:25:00,-21.0,-26.0,30.40,SE,146,0.0,1.0,79,0.00,,,0.00,weatherlink.com 1.10,2013-01-22 08:25:00,
2013-01-22 02:40:00,-21.0,-26.0,30.40,SE,129,0.0,1.0,79,0.00,,,0.00,weatherlink.com 1.10,2013-01-22 08:40:00,
2013-01-22 02:55:00,-21.2,-26.0,30.40,SE,142,0.0,2.0,79,0.00,,,0.00,weatherlink.com 1.10,2013-01-22 08:55:00,
2013-01-22 03:10:00,-21.4,-26.0,30.39,SE,127,0.0,6.0,79,0.00,,,0.00,weatherlink.com 1.10,2013-01-22 09:10:00,
2013-01-22 03:25:00,-21.6,-26.0,30.40,SE,141,1.0,3.0,79,0.00,,,0.00,weatherlink.com 1.10,2013-01-22 09:25:00,
2013-01-22 03:40:00,-21.8,-26.0,30.40,SE,134,0.0,1.0,79,0.00,,,0.00,weatherlink.com 1.10,2013-01-22 09:40:00,
2013-01-22 03:55:00,-22.0,-27.0,30.40,SE,125,0.0,1.0,79,0.00,,,0.00,weatherlink.com 1.10,2013-01-22 09:55:00,
2013-01-22 04:10:00,-22.0,-27.0,30.40,SE,129,1.0,1.0,79,0.00,,,0.00,weatherlink.com 1.10,2013-01-22 10:10:00,
2013-01-22 04:25:00,-21.9,-26.0,30.41,SE,136,0.0,2.0,79,0.00,,,0.00,weatherlink.com 1.10,2013-01-22 10:25:00,
2013-01-22 04:40:00,-21.9,-26.0,30.41,SE,136,0.0,3.0,79,0.00,,,0.00,weatherlink.com 1.10,2013-01-22 10:40:00,
2013-01-22 04:55:00,-22.1,-27.0,30.41,ESE,110,1.0,2.0,79,0.00,,,0.00,weatherlink.com 1.10,2013-01-22 10:55:00,
2013-01-22 05:10:00,-22.3,-27.0,30.41,SE,125,0.0,2.0,79,0.00,,,0.00,weatherlink.com 1.10,2013-01-22 11:10:00,
2013-01-22 05:25:00,-22.4,-27.0,30.42,ESE,122,1.0,4.0,79,0.00,,,0.00,weatherlink.com 1.10,2013-01-22 11:25:00,
2013-01-22 05:41:00,-22.5,-27.0,30.43,SSE,149,0.0,1.0,79,0.00,,,0.00,weatherlink.com 1.10,2013-01-22 11:41:00,
2013-01-22 05:56:00,-22.6,-27.0,30.43,ESE,123,0.0,1.0,79,0.00,,,0.00,weatherlink.com 1.10,2013-01-22 11:56:00,
2013-01-22 06:11:00,-22.5,-27.0,30.44,SE,129,0.0,1.0,79,0.00,,,0.00,weatherlink.com 1.10,2013-01-22 12:11:00,
2013-01-22 06:26:00,-22.5,-27.0,30.44,SE,135,0.0,-999.0,79,-99.99,,,0.00,weatherlink.com 1.10,2013-01-22 12:26:00,
2013-01-22 06:41:00,-22.2,-27.0,30.43,ESE,122,0.0,3.0,79,0.00,,,0.00,weatherlink.com 1.10,2013-01-22 12:41:00,
2013-01-22 07:11:00,-22.6,-27.0,30.43,SE,126,0.0,0.0,79,0.00,,,0.00,weatherlink.com 1.10,2013-01-22 13:11:00,
2013-01-22 07:26:00,-22.8,-27.0,30.42,SE,126,0.0,0.0,79,0.00,,,0.00,weatherlink.com 1.10,2013-01-22 13:26:00,
2013-01-22 07:56:00,-23.1,-28.0,30.43,East,91,0.0,0.0,78,0.00,,,0.00,weatherlink.com 1.10,2013-01-22 13:56:00,
2013-01-22 08:11:00,-23.3,-28.0,30.43,East,90,0.0,0.0,79,0.00,,,0.00,weatherlink.com 1.10,2013-01-22 14:11:00,
2013-01-22 08:26:00,-23.1,-28.0,30.43,ESE,117,0.0,1.0,79,0.00,,,0.00,weatherlink.com 1.10,2013-01-22 14:26:00,
2013-01-22 08:42:00,-23.4,-28.0,30.43,East,84,0.0,1.0,78,0.00,,,0.00,weatherlink.com 1.10,2013-01-22 14:42:00,
2013-01-22 08:57:00,-22.9,-27.0,30.44,East,84,0.0,0.0,79,0.00,,,0.00,weatherlink.com 1.10,2013-01-22 14:57:00,
2013-01-22 09:13:00,-21.3,-26.0,30.45,ESE,104,0.0,1.0,80,0.00,,,0.00,weatherlink.com 1.10,2013-01-22 15:13:00,
2013-01-22 09:27:00,-19.9,-24.0,30.44,SE,132,0.0,2.0,80,0.00,,,0.00,weatherlink.com 1.10,2013-01-22 15:27:00,
2013-01-22 09:42:00,-18.3,-23.0,30.44,SE,128,0.0,1.0,80,0.00,,,0.00,weatherlink.com 1.10,2013-01-22 15:42:00,
2013-01-22 09:57:00,-17.7,-22.0,30.44,ESE,106,0.0,1.0,79,0.00,,,0.00,weatherlink.com 1.10,2013-01-22 15:57:00,
2013-01-22 10:12:00,-17.0,-22.0,30.44,SE,131,0.0,2.0,79,0.00,,,0.00,weatherlink.com 1.10,2013-01-22 16:12:00,
2013-01-22 10:27:00,-15.5,-20.0,30.43,ESE,122,0.0,1.0,79,0.00,,,0.00,weatherlink.com 1.10,2013-01-22 16:27:00,
2013-01-22 10:42:00,-14.4,-19.0,30.44,SE,126,0.0,2.0,78,0.00,,,0.00,weatherlink.com 1.10,2013-01-22 16:42:00,
2013-01-22 10:57:00,-13.4,-19.0,30.43,SE,139,0.0,2.0,77,0.00,,,0.00,weatherlink.com 1.10,2013-01-22 16:57:00,
2013-01-22 11:12:00,-12.4,-18.0,30.44,SE,135,0.0,3.0,77,0.00,,,0.00,weatherlink.com 1.10,2013-01-22 17:12:00,
2013-01-22 11:27:00,-11.4,-17.0,30.43,SE,132,0.0,2.0,76,0.00,,,0.00,weatherlink.com 1.10,2013-01-22 17:27:00,
2013-01-22 11:42:00,-10.6,-17.0,30.42,ESE,114,0.0,3.0,74,0.00,,,0.00,weatherlink.com 1.10,2013-01-22 17:42:00,
2013-01-22 11:57:00,-10.1,-16.0,30.42,ESE,114,1.0,3.0,74,0.00,,,0.00,weatherlink.com 1.10,2013-01-22 17:57:00,
2013-01-22 12:13:00,-9.5,-16.0,30.41,SE,146,0.0,4.0,74,0.00,,,0.00,weatherlink.com 1.10,2013-01-22 18:13:00,
2013-01-22 12:43:00,-7.9,-14.0,30.40,SSE,147,2.0,3.0,73,0.00,,,0.00,weatherlink.com 1.10,2013-01-22 18:43:00,
2013-01-22 12:58:00,-7.3,-14.0,30.39,SE,125,0.0,3.0,72,0.00,,,0.00,weatherlink.com 1.10,2013-01-22 18:58:00,
2013-01-22 13:13:00,-7.3,-14.0,30.40,SE,134,0.0,3.0,71,0.00,,,0.00,weatherlink.com 1.10,2013-01-22 19:13:00,
2013-01-22 13:28:00,-6.6,-14.0,30.39,NE,50,1.0,4.0,71,0.00,,,0.00,weatherlink.com 1.10,2013-01-22 19:28:00,
2013-01-22 13:43:00,-5.4,-13.0,30.38,SE,125,0.0,3.0,69,0.00,,,0.00,weatherlink.com 1.10,2013-01-22 19:43:00,
2013-01-22 13:58:00,-5.3,-13.0,30.38,SE,125,1.0,3.0,70,0.00,,,0.00,weatherlink.com 1.10,2013-01-22 19:58:00,
2013-01-22 14:13:00,-6.0,-14.0,30.38,ESE,116,1.0,5.0,69,0.00,,,0.00,weatherlink.com 1.10,2013-01-22 20:13:00,
2013-01-22 14:28:00,-5.7,-13.0,30.38,ESE,113,1.0,3.0,70,0.00,,,0.00,weatherlink.com 1.10,2013-01-22 20:28:00,
2013-01-22 14:43:00,-5.4,-13.0,30.38,ESE,120,2.0,4.0,68,0.00,,,0.00,weatherlink.com 1.10,2013-01-22 20:43:00,
2013-01-22 14:58:00,-5.1,-13.0,30.38,SE,125,0.0,6.0,69,0.00,,,0.00,weatherlink.com 1.10,2013-01-22 20:58:00,
2013-01-22 15:14:00,-4.9,-13.0,30.38,SE,143,0.0,4.0,69,0.00,,,0.00,weatherlink.com 1.10,2013-01-22 21:14:00,
2013-01-22 15:44:00,-4.6,-12.0,30.37,ESE,111,0.0,4.0,69,0.00,,,0.00,weatherlink.com 1.10,2013-01-22 21:44:00,
2013-01-22 15:59:00,-4.8,-13.0,30.37,ESE,102,0.0,5.0,68,0.00,,,0.00,weatherlink.com 1.10,2013-01-22 21:59:00,
2013-01-22 16:14:00,-4.6,-13.0,30.36,SE,128,1.0,4.0,68,0.00,,,0.00,weatherlink.com 1.10,2013-01-22 22:14:00,
2013-01-22 16:29:00,-4.6,-12.0,30.36,East,86,0.0,4.0,69,0.00,,,0.00,weatherlink.com 1.10,2013-01-22 22:29:00,
2013-01-22 16:44:00,-5.2,-13.0,30.36,East,96,0.0,1.0,69,0.00,,,0.00,weatherlink.com 1.10,2013-01-22 22:44:00,
2013-01-22 16:59:00,-5.7,-13.0,30.36,East,87,0.0,1.0,71,0.00,,,0.00,weatherlink.com 1.10,2013-01-22 22:59:00,
2013-01-22 17:14:00,-6.4,-13.0,30.36,ESE,103,0.0,1.0,72,0.00,,,0.00,weatherlink.com 1.10,2013-01-22 23:14:00,
2013-01-22 17:29:00,-6.8,-14.0,30.36,SE,134,0.0,1.0,72,0.00,,,0.00,weatherlink.com 1.10,2013-01-22 23:29:00,
2013-01-22 17:44:00,-7.3,-14.0,30.36,SE,129,0.0,1.0,73,0.00,,,0.00,weatherlink.com 1.10,2013-01-22 23:44:00,
2013-01-22 17:59:00,-7.5,-14.0,30.35,SE,136,0.0,1.0,73,0.00,,,0.00,weatherlink.com 1.10,2013-01-22 23:59:00,
2013-01-22 18:14:00,-7.7,-14.0,30.35,SE,135,0.0,1.0,74,0.00,,,0.00,weatherlink.com 1.10,2013-01-23 00:14:00,
2013-01-22 18:29:00,-7.9,-14.0,30.34,SE,135,0.0,0.0,74,0.00,,,0.00,weatherlink.com 1.10,2013-01-23 00:29:00,
2013-01-22 18:45:00,-7.9,-14.0,30.34,SE,139,1.0,2.0,74,0.00,,,0.00,weatherlink.com 1.10,2013-01-23 00:45:00,
2013-01-22 19:00:00,-7.6,-14.0,30.33,ESE,109,0.0,1.0,74,0.00,,,0.00,weatherlink.com 1.10,2013-01-23 01:00:00,
2013-01-22 19:15:00,-7.0,-13.0,30.33,SE,132,1.0,1.0,74,0.00,,,0.00,weatherlink.com 1.10,2013-01-23 01:15:00,
2013-01-22 19:30:00,-6.5,-13.0,30.32,ESE,119,0.0,4.0,73,0.00,,,0.00,weatherlink.com 1.10,2013-01-23 01:30:00,
2013-01-22 19:45:00,-6.7,-13.0,30.32,SE,128,0.0,1.0,73,0.00,,,0.00,weatherlink.com 1.10,2013-01-23 01:45:00,
2013-01-22 20:00:00,-7.2,-13.0,30.32,ESE,122,0.0,4.0,74,0.00,,,0.00,weatherlink.com 1.10,2013-01-23 02:00:00,
2013-01-22 20:15:00,-7.9,-14.0,30.31,ESE,123,0.0,1.0,74,0.00,,,0.00,weatherlink.com 1.10,2013-01-23 02:15:00,
2013-01-22 20:30:00,-8.8,-14.0,30.31,East,90,0.0,1.0,76,0.00,,,0.00,weatherlink.com 1.10,2013-01-23 02:30:00,
2013-01-22 20:45:00,-9.2,-15.0,30.31,ESE,110,0.0,1.0,76,0.00,,,0.00,weatherlink.com 1.10,2013-01-23 02:45:00,
2013-01-22 21:00:00,-9.7,-15.0,30.31,ESE,105,0.0,1.0,77,0.00,,,0.00,weatherlink.com 1.10,2013-01-23 03:00:00,
2013-01-22 21:15:00,-10.1,-15.0,30.31,ESE,111,0.0,1.0,78,0.00,,,0.00,weatherlink.com 1.10,2013-01-23 03:15:00,
2013-01-22 21:30:00,-9.9,-15.0,30.30,East,96,0.0,1.0,77,0.00,,,0.00,weatherlink.com 1.10,2013-01-23 03:30:00,
2013-01-22 21:45:00,-9.9,-15.0,30.30,ESE,104,0.0,1.0,77,0.00,,,0.00,weatherlink.com 1.10,2013-01-23 03:45:00,
2013-01-22 22:01:00,-10.1,-15.0,30.31,East,91,0.0,1.0,78,0.00,,,0.00,weatherlink.com 1.10,2013-01-23 04:01:00,
2013-01-22 22:16:00,-10.3,-15.0,30.31,East,94,0.0,1.0,78,0.00,,,0.00,weatherlink.com 1.10,2013-01-23 04:16:00,
2013-01-22 22:31:00,-10.8,-16.0,30.31,East,86,0.0,1.0,78,0.00,,,0.00,weatherlink.com 1.10,2013-01-23 04:31:00,
2013-01-22 22:46:00,-11.3,-16.0,30.30,ESE,104,0.0,1.0,79,0.00,,,0.00,weatherlink.com 1.10,2013-01-23 04:46:00,
2013-01-22 23:16:00,-12.4,-17.0,30.30,East,91,0.0,1.0,80,0.00,,,0.00,weatherlink.com 1.10,2013-01-23 05:16:00,
2013-01-22 23:31:00,-13.3,-18.0,30.30,East,91,0.0,0.0,80,0.00,,,0.00,weatherlink.com 1.10,2013-01-23 05:31:00,
2013-01-22 23:46:00,-14.0,-18.0,30.29,East,91,0.0,0.0,81,0.00,,,0.00,weatherlink.com 1.10,2013-01-23 05:46:00,